Simultaneous Nadir Overpasses (SNOs) Predictions

Prediction of SNOs between AQUA and METOP-C Satellite Orbit:

Table of predicted SNOs for the next 14.0 days since TLE Epoch: 9/4/2021
Index Date (AQUA) Time (AQUA) Lat,Lon (AQUA) SZA (AQUA ) Date (METOP-C) Time (METOP-C) Lat,Lon (METOP-C) SZA (METOP-C ) Distance(km) Time Diff (sec)
1 09/05/2021 09:19:56 73.75, 34.38 67.07 09/05/2021 09:18:43 73.72, 34.40 67.06 3.13 73
2 09/05/2021 10:09:23 -73.81,-158.11 112.85 09/05/2021 10:09:22 -73.83,-158.02 112.84 3.51 1
3 09/05/2021 10:58:51 73.85, 9.44 67.20 09/05/2021 11:00:02 73.85, 9.36 67.20 2.62 71
4 09/08/2021 04:54:11 73.71, 100.90 68.08 09/08/2021 04:53:03 73.73, 100.84 68.11 3.09 68
5 09/08/2021 05:43:39 -73.82, -91.69 111.80 09/08/2021 05:43:43 -73.80, -91.68 111.82 2.51 4
6 09/08/2021 06:33:08 73.92, 75.73 68.32 09/08/2021 06:34:21 73.91, 75.91 68.30 5.66 73
7 09/11/2021 00:28:27 73.73, 167.29 69.16 09/11/2021 00:27:23 73.74, 167.27 69.18 1.09 64
8 09/11/2021 01:17:55 -73.84, -25.29 110.72 09/11/2021 01:18:03 -73.82, -25.23 110.74 3.10 8
9 09/11/2021 02:07:26 74.09, 141.77 69.57 09/11/2021 02:08:36 74.11, 142.83 69.56 32.42 70
10 09/13/2021 20:02:42 73.76,-126.34 70.26 09/13/2021 20:01:42 73.75,-126.31 70.25 2.04 60
11 09/13/2021 20:52:09 -73.81, 41.20 109.68 09/13/2021 20:52:22 -73.83, 41.21 109.66 2.34 13
12 09/13/2021 21:41:45 74.28,-152.22 70.83 09/13/2021 21:42:53 74.27,-150.38 70.77 55.74 68
13 09/16/2021 15:36:57 73.75, -59.87 71.32 09/16/2021 15:36:02 73.75, -59.89 71.33 0.77 55
14 09/16/2021 16:26:25 -73.84, 107.57 108.57 09/16/2021 16:26:42 -73.84, 107.66 108.57 2.64 17



Historial Predications of SNOs between AQUA and METOP-C
